#timestamp,LO_Frequency,Hit,StdDev 
1518627615.3,286047009.0,Y
1518627635.2,286047012.2,P
1518627655.9,286047012.3,N
1518627675.7,286047013.1,N
1518627695.6,286047015.7,Y
1518627715.4,286047001.0,P
1518627735.3,286046999.0,N
1518627755.1,286046999.8,N
1518627756.0,286046999.8,N
1518627775.8,286047000.5,N
1518627795.7,286047000.7,N
1518627815.5,286046996.5,N
1518627835.3,286046995.6,N
1518627855.2,286046993.7,N
1518627875.0,286046993.5,N
1518627875.9,286046993.5,N
1518627895.8,286046992.1,N
1518627915.6,286046995.4,N
1518627935.4,286046991.7,N
1518627955.3,286046993.3,N
1518627975.1,286046996.3,N
1518627995.8,286046997.2,N
1518628015.7,286046994.1,N
1518628035.5,286046988.8,N
1518628055.4,286046987.6,N
1518628075.2,286046989.2,N
1518628095.0,286046990.5,N
1518628095.9,286046990.5,N
1518628115.8,286046994.8,N
1518628135.6,286046999.2,N
1518628155.4,286046997.2,N
1518628175.3,286046996.8,N
1518628195.1,286047002.3,N
1518628215.9,286046994.2,N
1518628235.7,286046994.5,N
1518628255.5,286046994.6,N
1518628275.4,286046996.2,N
1518628295.2,286046999.6,N
1518628315.0,286047002.7,N
1518628315.9,286047002.7,N
1518628335.8,286046993.4,N
1518628355.6,286046997.3,N
1518628375.5,286046993.6,N
1518628395.3,286046997.3,N
1518628415.1,286046997.6,N
1518628435.9,286046995.6,N
1518628455.7,286046988.5,Y
1518628475.6,286046994.3,P
1518628495.4,286046992.8,P
1518628515.2,286046997.4,N
1518628535.1,286046999.2,N
1518628536.0,286046999.2,N
1518628555.8,286046997.3,N
1518628575.6,286046995.6,N
1518628595.5,286046995.4,N
1518628615.3,286046998.2,N
1518628635.2,286046996.8,N
1518628655.9,286046993.8,Y
1518628675.7,286047000.1,P
1518628695.6,286047005.5,P
1518628715.4,286047001.2,N
1518628735.2,286046999.7,N
1518628755.1,286046995.6,N
1518628756.0,286046995.6,N
1518628775.8,286046995.4,N
1518628795.7,286046996.5,N
1518628815.5,286046993.9,N
1518628835.3,286046994.6,N
1518628855.2,286046996.4,N
1518628875.0,286046998.5,N
1518628875.9,286046998.5,N
1518628895.8,286046995.0,N
1518628915.6,286046993.9,N
1518628935.4,286046998.8,N
1518628955.3,286047004.3,N
1518628975.1,286047004.6,N
1518628995.8,286047007.1,N
1518629015.7,286047003.3,N
1518629035.5,286047005.6,N
1518629055.4,286047012.3,N
1518629075.2,286047003.8,N
1518629095.0,286047004.5,N
1518629095.9,286047004.5,N
1518629115.8,286047002.0,N
1518629135.6,286047003.3,N
1518629155.5,286047002.7,N
1518629175.3,286046997.0,N
1518629195.1,286046995.2,N
1518629215.9,286046995.1,N
1518629235.7,286046990.7,N
1518629255.5,286046995.3,N
1518629275.4,286047000.9,N
1518629295.2,286047004.7,N
1518629315.1,286047003.0,N
1518629316.0,286047003.0,N
1518629335.8,286047001.7,N
1518629355.6,286047005.9,N
1518629375.5,286047002.5,N
1518629395.3,286047006.8,N
1518629415.1,286047007.6,N
1518629435.9,286047009.0,N
1518629455.7,286047009.4,N
1518629475.6,286047009.9,N
1518629495.4,286047006.8,N
1518629515.2,286047006.4,N
1518629535.1,286047011.0,N
1518629536.0,286047011.0,N
1518629555.8,286047007.5,N
1518629575.6,286047005.8,N
1518629595.5,286047004.5,N
1518629615.3,286047008.5,N
1518629635.2,286047008.2,N
1518629655.9,286047016.3,Y
1518629675.7,286047012.0,P
1518629695.6,286047008.3,N
1518629715.4,286047007.6,N
1518629735.3,286047001.3,N
1518629755.1,286047001.8,N
1518629756.0,286047001.8,N
1518629775.8,286047002.4,N
1518629795.7,286047003.7,N
1518629815.5,286047003.2,N
1518629835.3,286047000.4,N
1518629855.2,286046999.1,N
1518629875.0,286046996.9,N
1518629875.9,286046996.9,N
1518629895.8,286047001.0,N
1518629915.6,286046993.6,N
1518629935.4,286046987.7,N
1518629955.3,286046988.8,N
1518629975.1,286046989.7,N
1518629995.9,286046991.2,N
1518630015.7,286046989.7,N
1518630035.5,286046994.8,N
1518630055.4,286046993.8,N
1518630075.2,286046995.6,N
1518630095.0,286046993.4,N
1518630095.9,286046993.4,N
1518630115.8,286047001.2,N
1518630135.6,286046999.7,N
1518630155.5,286047002.2,N
1518630175.3,286046998.9,N
1518630195.1,286047002.9,N
1518630215.9,286047006.8,N
1518630235.7,286047003.6,N
1518630255.5,286047005.5,N
1518630275.4,286047012.4,N
1518630295.2,286047007.8,N
1518630315.1,286047003.3,N
1518630316.0,286047003.3,N
1518630335.8,286046996.0,N
1518630355.6,286046991.0,N
1518630375.5,286046987.6,N
1518630395.3,286046989.6,N
1518630415.2,286046983.3,N
1518630435.9,286046978.4,Y
1518630455.7,286046976.2,P
1518630475.6,286046975.6,N
1518630495.4,286046971.1,N
1518630515.3,286046969.8,Y
1518630535.1,286046990.4,P
1518630536.0,286046990.4,N
1518630555.8,286046989.2,N
1518630575.7,286046988.4,N
1518630595.5,286046987.9,Y
1518630615.4,286047000.6,P
1518630635.2,286047000.4,N
1518630655.0,286047000.6,N
1518630655.9,286047000.6,N
1518630675.8,286047008.0,N
1518630695.6,286047008.7,N
1518630715.4,286047006.9,N
1518630735.3,286047004.1,N
1518630755.1,286047005.4,N
1518630775.9,286047008.5,N
1518630795.7,286047009.9,N
1518630815.5,286047010.5,N
1518630835.4,286047013.0,N
1518630855.2,286047011.3,N
1518630875.0,286047016.3,N
1518630875.9,286047016.3,N
1518630895.8,286047017.2,N
1518630915.6,286047018.4,N
1518630935.5,286047019.5,N
1518630955.3,286047022.7,N
1518630975.1,286047025.2,Y
1518630995.9,286047018.0,P
1518631015.7,286047019.8,P
1518631035.6,286047019.7,P
1518631055.4,286047018.9,Y
1518631075.2,286047006.0,P
1518631095.1,286047003.8,N
1518631096.0,286047003.8,N
1518631115.8,286047002.9,N
1518631135.7,286047005.8,N
1518631155.5,286047011.9,N
1518631175.3,286047000.5,N
1518631195.2,286046998.2,N
